Slidell, LA

10:56 PM CDT on July 23, 2017 (GMT -0500)
Slidell

Weather History for KASD - September, 2012

Change the Weather History Date:

Wednesday, September 26, 2012

  Actual Average (KNEW) Record (KNEW)
Temperature  
Mean Temperature 74 °F -  
Max Temperature 87 °F 84 °F 95 °F (2016)
Min Temperature 61 °F 71 °F 50 °F (1975)
Cooling Degree Days 8    
Growing Degree Days 24 (Base 50)    
Moisture  
Dew Point 68 °F    
Average Humidity 80    
Maximum Humidity 100    
Minimum Humidity 51    
Precipitation  
Precipitation 0.01 in - - ()
Sea Level Pressure  
Sea Level Pressure 30.08 in    
Wind  
Wind Speed 2 mph (SE)    
Max Wind Speed 8 mph    
Max Gust Speed -    
Visibility 10 miles    
Events      
Averages and records for this station are not official NWS values.
T = Trace of Precipitation, MM = Missing Value Source: NWS Daily Summary

Daily Weather History Graph

Daily Weather History Graph

Search for Another Location

Airport or City:

Trip Planner

Search our weather history database for the weather conditions in past years. The results will help you decide how hot, cold, wet, or windy it might be!

Date:

Astronomy

Sep. 26, 2012 Rise Set
Actual Time 6:50 AM CDT 6:50 PM CDT
Civil Twilight 6:26 AM CDT 7:14 PM CDT
Nautical Twilight 5:58 AM CDT 7:41 PM CDT
Astronomical Twilight 5:30 AM CDT 8:09 PM CDT
Moon 4:39 PM CDT (9/26) 3:28 AM CDT (9/26)
Length of Visible Light 12h 47m
Length of Day
12h 00m
Waxing Gibbous, 88% of the Moon is Illuminated
Sep 26
Waxing Gibbous
Sep 29
Full
Oct 8
Last Quarter
Oct 15
New
Oct 21
First Quarter

Hourly Weather History & Observations

Time (CDT) Temp. Heat Index Dew Point Humidity Pressure Visibility Wind Dir Wind Speed Gust Speed Precip Events Conditions
12:53 AM 63.0 °F - 62.1 °F 97% 30.07 in 10.0 mi Calm Calm - N/A   Clear
1:53 AM 63.0 °F - 61.0 °F 93% 30.06 in 10.0 mi Calm Calm - 0.01 in   Clear
3:53 AM 61.0 °F - 61.0 °F 100% 30.06 in 10.0 mi Calm Calm - N/A   Clear
4:53 AM 62.1 °F - 61.0 °F 96% 30.07 in 10.0 mi North 3.5 mph - N/A   Clear
5:53 AM 61.0 °F - 60.1 °F 97% 30.08 in 10.0 mi Calm Calm - N/A   Clear
7:53 AM 66.0 °F - 64.0 °F 93% 30.10 in 10.0 mi Calm Calm - N/A   Clear
8:53 AM 73.0 °F - 68.0 °F 84% 30.11 in 10.0 mi ENE 4.6 mph - N/A   Clear
9:53 AM 79.0 °F - 70.0 °F 74% 30.12 in 10.0 mi NE 3.5 mph - N/A   Clear
10:53 AM 81.0 °F 84.9 °F 71.1 °F 72% 30.12 in 10.0 mi Calm Calm - N/A   Clear
11:53 AM 84.0 °F 87.8 °F 69.1 °F 61% 30.11 in 10.0 mi SE 6.9 mph - N/A   Mostly Cloudy
12:53 PM 84.9 °F 89.4 °F 70.0 °F 61% 30.09 in 10.0 mi ESE 8.1 mph - N/A   Scattered Clouds
1:53 PM 84.0 °F 87.8 °F 69.1 °F 61% 30.07 in 10.0 mi South 5.8 mph - N/A   Partly Cloudy
2:53 PM 86.0 °F 90.1 °F 69.1 °F 57% 30.05 in 10.0 mi South 5.8 mph - N/A   Mostly Cloudy
3:53 PM 86.0 °F 88.2 °F 66.0 °F 51% 30.05 in 10.0 mi South 3.5 mph - N/A   Scattered Clouds
4:53 PM 86.0 °F 90.1 °F 69.1 °F 57% 30.04 in 10.0 mi ESE 5.8 mph - N/A   Scattered Clouds
5:53 PM 84.0 °F 88.4 °F 70.0 °F 63% 30.05 in 10.0 mi SSE 6.9 mph - N/A   Clear
6:53 PM 79.0 °F - 72.0 °F 79% 30.06 in 10.0 mi SE 3.5 mph - N/A   Clear
7:53 PM 73.9 °F - 72.0 °F 93% 30.08 in 10.0 mi Calm Calm - N/A   Clear
8:53 PM 73.0 °F - 71.1 °F 93% 30.09 in 10.0 mi Calm Calm - N/A   Clear
9:53 PM 71.1 °F - 70.0 °F 96% 30.10 in 10.0 mi Calm Calm - N/A   Clear
10:53 PM 73.0 °F - 72.0 °F 96% 30.10 in 10.0 mi Calm Calm - N/A   Clear
11:53 PM 71.1 °F - 69.1 °F 93% 30.10 in 10.0 mi Calm Calm - N/A   Clear